1485190800.18,17946,11.5,73562.3,-8.67,-41.03,-41.23,0,*56
1485190801.4,17947,11.5,73564.5,-8.67,-40.91,-41.29,0,*57
1485190802.64,17948,11.5,73560.5,-8.67,-41.23,-41.41,0,*5E
1485190803.84,17949,11.5,73564.3,-8.67,-41.41,-41.61,0,*59
1485190805.08,17950,11.5,73562.0,-8.67,-41.23,-41.41,0,*57
1485190806.32,17951,11.5,73564.3,-8.67,-41.23,-41.29,0,*58
1485190807.56,17952,11.5,73560.8,-8.67,-41.11,-41.23,0,*50
1485190808.8,17953,11.5,73562.8,-8.67,-41.23,-41.29,0,*5A
1485190810.0,17954,11.5,73562.0,-8.67,-41.29,-41.49,0,*51
1485190811.29,17955,11.5,73560.8,-8.69,-41.35,-41.55,0,*5E
1485190812.53,17956,11.5,73560.5,-8.69,-41.11,-41.29,0,*50
1485190813.74,17957,11.5,73560.3,-8.67,-41.11,-41.29,0,*5F
1485190815.0,17958,11.5,73564.8,-8.69,-41.17,-41.35,0,*55
1485190816.26,17959,11.5,73564.0,-8.69,-41.17,-41.35,0,*54
1485190817.53,17960,11.5,73562.3,-8.69,-41.17,-41.35,0,*5E
1485190818.79,17961,11.5,73562.3,-8.69,-41.49,-41.55,0,*52
1485190820.0,17962,11.5,73562.5,-8.67,-41.41,-41.49,0,*5A
1485190821.23,17963,11.44,73560.5,-8.69,-41.49,-41.49,0,*5D
1485190822.5,17964,11.5,73562.0,-8.69,-41.35,-41.49,0,*51
1485190823.73,17965,11.5,73562.8,-8.69,-41.29,-41.49,0,*5D
1485190824.96,17966,11.5,73562.8,-8.69,-41.49,-41.49,0,*58
1485190826.19,17967,11.5,73562.3,-8.69,-41.49,-41.49,0,*59
1485190827.4,17968,11.5,73562.3,-8.71,-41.49,-41.49,0,*5F
1485190828.63,17969,11.5,73562.5,-8.69,-41.29,-41.49,0,*51
1485190829.84,17970,11.5,73562.0,-8.71,-41.17,-41.29,0,*5B
1485190831.05,17971,11.5,73560.5,-8.71,-41.29,-41.29,0,*57
1485190832.29,17972,11.5,73566.5,-8.71,-41.17,-41.35,0,*54
1485190833.55,17973,11.5,73562.8,-8.69,-41.29,-41.35,0,*51
1485190834.84,17974,11.5,73562.0,-8.69,-41.35,-41.55,0,*5D
1485190836.07,17975,11.5,73562.8,-8.71,-41.29,-41.55,0,*58
1485190837.34,17976,11.5,73562.3,-8.71,-41.35,-41.55,0,*56
1485190838.55,17977,11.5,73562.8,-8.71,-41.17,-41.49,0,*5A
1485190839.81,17978,11.5,73562.0,-8.73,-41.35,-41.61,0,*5D
1485190841.01,17979,11.5,73560.8,-8.71,-41.29,-41.49,0,*59
1485190842.31,17980,11.5,73562.8,-8.73,-41.23,-41.55,0,*5A
1485190843.57,17981,11.5,73560.8,-8.73,-41.35,-41.41,0,*59
1485190844.81,17982,11.5,73562.0,-8.71,-41.35,-41.49,0,*50
1485190846.04,17983,11.5,73562.0,-8.71,-41.29,-41.55,0,*51
1485190847.31,17984,11.5,73564.3,-8.73,-41.41,-41.55,0,*5A
1485190848.6,17985,11.5,73562.8,-8.73,-41.35,-41.55,0,*58
1485190849.89,17986,11.5,73562.3,-8.73,-41.23,-41.35,0,*5A
1485190851.1,17987,11.5,73564.3,-8.71,-41.11,-41.29,0,*55
1485190852.34,17988,11.5,73560.8,-8.71,-40.97,-41.11,0,*5E
1485190853.61,17989,11.5,73560.5,-8.73,-41.03,-41.35,0,*57
1485190854.88,17990,11.5,73562.3,-8.73,-41.03,-41.23,0,*58
1485190856.15,17991,11.5,73560.8,-8.73,-41.23,-41.41,0,*5F
1485190857.41,17992,11.5,73560.5,-8.73,-41.03,-41.23,0,*5A
1485190858.66,17993,11.5,73562.3,-8.73,-40.91,-41.17,0,*56
1485190859.87,17994,11.5,73562.5,-8.71,-40.91,-41.11,0,*55
1485190861.16,17995,11.5,73562.5,-8.73,-40.97,-41.23,0,*51
1485190862.43,17996,11.5,73564.8,-8.73,-41.17,-41.35,0,*5C
1485190863.66,17997,11.5,73560.0,-8.73,-41.17,-41.41,0,*5E
1485190864.87,17998,11.44,73558.8,-8.71,-41.17,-41.29,0,*5D
1485190866.14,17999,11.5,73562.5,-8.73,-41.35,-41.41,0,*50
1485190867.4,18000,11.5,73562.8,-8.71,-40.97,-41.35,0,*5E
1485190868.67,18001,11.5,73560.3,-8.71,-40.85,-40.97,0,*55
1485190869.9,18002,11.5,73564.3,-8.71,-41.29,-41.35,0,*58
1485190871.11,18003,11.5,73562.5,-8.71,-41.17,-41.49,0,*5F
1485190872.34,18004,11.5,73562.8,-8.73,-41.17,-41.41,0,*52
1485190873.64,18005,11.5,73562.3,-8.73,-41.35,-41.35,0,*50
1485190874.91,18006,11.5,73564.8,-8.73,-41.03,-41.35,0,*56
1485190876.12,18007,11.5,73562.8,-8.71,-41.11,-41.29,0,*5B
1485190877.35,18008,11.5,73560.3,-8.71,-41.11,-41.35,0,*59
1485190878.62,18009,11.5,73560.8,-8.73,-41.23,-41.41,0,*58
1485190879.91,18010,11.5,73562.3,-8.73,-41.35,-41.55,0,*52
1485190881.21,18011,11.44,73558.0,-8.73,-41.35,-41.55,0,*53
1485190882.47,18012,11.5,73562.0,-8.73,-41.35,-41.41,0,*55
1485190883.74,18013,11.5,73564.8,-8.73,-41.35,-41.41,0,*54
1485190885.0,18014,11.5,73560.8,-8.73,-41.17,-41.35,0,*50
1485190886.27,18015,11.44,73558.5,-8.73,-41.23,-41.41,0,*55
1485190887.54,18016,11.5,73562.0,-8.73,-41.03,-41.35,0,*57
1485190888.81,18017,11.5,73560.0,-8.73,-41.23,-41.41,0,*57
1485190890.1,18018,11.5,73562.8,-8.73,-41.35,-41.55,0,*5A
1485190891.39,18019,11.5,73560.5,-8.73,-41.35,-41.55,0,*5B
1485190892.66,18020,11.5,73560.3,-8.75,-41.23,-41.35,0,*56
1485190893.88,18021,11.5,73562.0,-8.75,-40.91,-41.03,0,*5A
1485190895.09,18022,11.5,73560.5,-8.75,-41.17,-41.41,0,*50
1485190896.33,18023,11.5,73560.5,-8.75,-41.03,-41.35,0,*57
1485190897.6,18024,11.5,73560.0,-8.73,-41.23,-41.41,0,*57
1485190898.84,18025,11.5,73562.5,-8.75,-41.03,-41.35,0,*51
1485190900.05,18026,11.44,73558.8,-8.75,-41.17,-41.41,0,*54
1485190901.29,18027,11.5,73560.0,-8.75,-41.35,-41.41,0,*55
1485190902.53,18028,11.5,73560.5,-8.75,-41.23,-41.41,0,*5D
1485190903.77,18029,11.44,73560.3,-8.75,-41.35,-41.41,0,*5B
1485190905.01,18030,11.5,73562.3,-8.75,-41.35,-41.41,0,*53
1485190906.21,18031,11.5,73562.5,-8.75,-41.29,-41.49,0,*57
1485190907.46,18032,11.5,73562.5,-8.75,-41.03,-41.35,0,*57
1485190908.72,18033,11.5,73562.8,-8.75,-41.35,-41.55,0,*55
1485190909.96,18034,11.5,73564.5,-8.75,-41.41,-41.55,0,*51
1485190911.22,18035,11.5,73566.3,-8.75,-41.55,-41.55,0,*55
1485190912.46,18036,11.5,73562.5,-8.75,-41.35,-41.41,0,*55
1485190913.7,18037,11.5,73562.0,-8.75,-41.41,-41.55,0,*52
1485190914.94,18038,11.44,73560.5,-8.75,-41.41,-41.55,0,*5D
1485190916.18,18039,11.5,73560.8,-8.75,-41.41,-41.55,0,*5C
1485190917.42,18040,11.5,73560.0,-8.77,-41.49,-41.61,0,*5F
1485190918.65,18041,11.5,73562.8,-8.77,-41.29,-41.49,0,*52
1485190919.89,18042,11.5,73560.8,-8.77,-41.41,-41.49,0,*5F
1485190921.13,18043,11.44,73556.0,-8.75,-41.23,-41.41,0,*50
1485190922.36,18044,11.5,73562.5,-8.77,-41.29,-41.49,0,*57
1485190923.6,18045,11.44,73560.3,-8.75,-41.23,-41.41,0,*56
1485190924.84,18046,11.5,73562.3,-8.75,-41.23,-41.41,0,*55
1485190926.08,18047,11.5,73562.5,-8.77,-41.29,-41.49,0,*54
1485190927.31,18048,11.5,73560.0,-8.77,-41.11,-41.49,0,*50
1485190928.58,18049,11.5,73560.3,-8.77,-41.11,-41.23,0,*5D
1485190929.85,18050,11.5,73560.0,-8.77,-41.23,-41.41,0,*50
1485190931.06,18051,11.5,73562.5,-8.75,-41.17,-41.41,0,*54
1485190932.27,18052,11.5,73562.5,-8.75,-41.17,-41.41,0,*57
1485190933.51,18053,11.5,73560.5,-8.77,-41.29,-41.41,0,*59
1485190934.77,18054,11.5,73560.5,-8.77,-41.23,-41.49,0,*5C
1485190936.01,18055,11.5,73560.3,-8.77,-41.11,-41.29,0,*5A
1485190937.25,18056,11.44,73560.5,-8.75,-41.03,-41.23,0,*52
1485190938.52,18057,11.5,73562.5,-8.75,-41.35,-41.55,0,*57
1485190939.76,18058,11.5,73562.0,-8.75,-41.23,-41.41,0,*5A
1485190941.03,18059,11.5,73560.5,-8.77,-41.23,-41.41,0,*59
1485190942.26,18060,11.5,73562.0,-8.77,-41.29,-41.49,0,*51
1485190943.5,18061,11.5,73560.0,-8.77,-41.29,-41.49,0,*50
1485190944.76,18062,11.5,73562.8,-8.77,-41.23,-41.49,0,*59
1485190946.0,18063,11.44,73558.5,-8.77,-41.29,-41.49,0,*52
1485190947.23,18064,11.44,73558.8,-8.77,-41.49,-41.49,0,*53
1485190948.5,18065,11.5,73560.8,-8.77,-41.23,-41.41,0,*56
1485190949.74,18066,11.44,73560.8,-8.77,-41.29,-41.49,0,*57
1485190950.98,18067,11.5,73562.8,-8.77,-41.11,-41.41,0,*55
1485190952.21,18068,11.44,73558.0,-8.77,-41.11,-41.49,0,*52
1485190953.48,18069,11.5,73560.5,-8.77,-41.23,-41.41,0,*5A
1485190954.77,18070,11.5,73562.8,-8.77,-40.97,-41.23,0,*58
1485190956.01,18071,11.5,73560.8,-8.77,-41.11,-41.49,0,*5A
1485190957.25,18072,11.5,73560.5,-8.75,-41.17,-41.35,0,*56
1485190958.48,18073,11.5,73562.3,-8.77,-41.29,-41.49,0,*53
1485190959.75,18074,11.5,73562.8,-8.77,-41.23,-41.41,0,*56
1485190960.98,18075,11.44,73558.0,-8.77,-41.29,-41.49,0,*55
1485190962.25,18076,11.5,73560.5,-8.77,-41.23,-41.49,0,*5C
1485190963.49,18077,11.44,73556.5,-8.77,-41.11,-41.41,0,*54
1485190964.76,18078,11.44,73558.3,-8.77,-41.23,-41.41,0,*5A
1485190966.03,18079,11.44,73558.8,-8.77,-41.23,-41.41,0,*5B
1485190967.27,18080,11.44,73556.8,-8.77,-41.11,-41.41,0,*5C
1485190968.52,18081,11.5,73560.8,-8.77,-41.03,-41.29,0,*50
1485190969.79,18082,11.5,73562.5,-8.77,-41.23,-41.41,0,*5F
1485190971.03,18083,11.5,73560.5,-8.77,-41.11,-41.29,0,*51
1485190972.27,18084,11.5,73560.3,-8.77,-41.11,-41.29,0,*56
1485190973.51,18085,11.5,73562.5,-8.77,-41.11,-41.29,0,*57
1485190974.77,18086,11.44,73560.0,-8.75,-40.97,-41.35,0,*54
1485190976.04,18087,11.44,73558.3,-8.77,-41.03,-41.23,0,*5C
1485190977.3,18088,11.44,73560.0,-8.75,-40.97,-41.23,0,*5D
1485190978.54,18089,11.5,73562.8,-8.75,-41.17,-41.35,0,*52
1485190979.8,18090,11.5,73560.8,-8.77,-41.11,-41.23,0,*59
1485190981.04,18091,11.5,73562.8,-8.75,-41.23,-41.41,0,*5F
1485190982.31,18092,11.44,73558.0,-8.75,-41.23,-41.23,0,*58
1485190983.58,18093,11.44,73560.0,-8.77,-41.23,-41.49,0,*57
1485190984.84,18094,11.5,73562.5,-8.77,-41.11,-41.23,0,*5D
1485190986.08,18095,11.5,73560.8,-8.77,-41.11,-41.29,0,*56
1485190987.35,18096,11.44,73560.0,-8.77,-41.23,-41.29,0,*54
1485190988.59,18097,11.5,73560.0,-8.77,-41.11,-41.29,0,*54
1485190989.8,18098,11.44,73560.0,-8.75,-41.17,-41.29,0,*5F
1485190991.04,18099,11.5,73560.0,-8.77,-41.11,-41.29,0,*5A
1485190992.27,18100,11.5,73560.8,-8.77,-41.29,-41.49,0,*56
1485190993.51,18101,11.44,73558.5,-8.75,-41.17,-41.23,0,*54
1485190994.75,18102,11.5,73562.5,-8.75,-41.17,-41.35,0,*50
1485190995.99,18103,11.5,73562.0,-8.77,-41.11,-41.41,0,*56
1485190997.23,18104,11.5,73560.8,-8.77,-41.11,-41.29,0,*5F
1485190998.49,18105,11.5,73560.5,-8.77,-41.11,-41.23,0,*54
1485190999.73,18106,11.44,73560.3,-8.75,-40.97,-41.17,0,*5D
1485191000.94,18107,11.44,73560.5,-8.75,-41.03,-41.41,0,*53
1485191002.18,18108,11.44,73558.8,-8.75,-41.17,-41.35,0,*5A
1485191003.42,18109,11.5,73560.8,-8.77,-41.11,-41.29,0,*52
1485191004.66,18110,11.5,73566.5,-8.75,-41.03,-41.23,0,*51
1485191005.93,18111,11.5,73560.8,-8.77,-41.23,-41.29,0,*5A
1485191007.17,18112,11.5,73560.8,-8.75,-41.03,-41.23,0,*53
1485191008.38,18113,11.5,73560.3,-8.75,-41.11,-41.29,0,*5B
1485191009.62,18114,11.5,73560.8,-8.75,-41.03,-41.35,0,*52
1485191010.84,18115,11.5,73562.0,-8.75,-41.03,-41.17,0,*53
1485191012.11,18116,11.5,73558.8,-8.77,-41.03,-41.23,0,*55
1485191013.35,18117,11.44,73560.3,-8.77,-41.03,-41.29,0,*5E
1485191014.62,18118,11.44,73560.5,-8.75,-40.97,-41.23,0,*55
1485191015.86,18119,11.5,73562.8,-8.75,-41.03,-41.23,0,*58
1485191017.08,18120,11.5,73560.8,-8.75,-41.03,-41.03,0,*50
1485191018.31,18121,11.5,73560.0,-8.75,-40.97,-41.17,0,*58
1485191019.53,18122,11.5,73562.3,-8.75,-41.03,-41.17,0,*57
1485191020.8,18123,11.5,73560.8,-8.77,-40.97,-41.17,0,*58
1485191022.06,18124,11.44,73560.5,-8.75,-40.97,-41.23,0,*5A
1485191023.3,18125,11.44,73558.8,-8.75,-41.35,-41.41,0,*56
1485191024.54,18126,11.44,73560.0,-8.75,-41.35,-41.41,0,*55
1485191025.78,18127,11.5,73560.8,-8.77,-41.29,-41.41,0,*5B
1485191027.02,18128,11.44,73558.8,-8.75,-41.03,-41.35,0,*5D
1485191028.26,18129,11.5,73562.5,-8.75,-41.23,-41.41,0,*5D
1485191029.49,18130,11.5,73560.5,-8.75,-41.17,-41.35,0,*51
1485191030.73,18131,11.44,73560.8,-8.75,-40.97,-41.17,0,*59
1485191031.97,18132,11.44,73560.5,-8.75,-41.03,-41.35,0,*56
1485191033.21,18133,11.44,73560.0,-8.75,-41.03,-41.35,0,*57
1485191034.45,18134,11.44,73560.5,-8.75,-41.03,-41.23,0,*57
1485191035.69,18135,11.44,73560.3,-8.77,-41.29,-41.41,0,*58
1485191036.93,18136,11.44,73560.0,-8.75,-41.03,-41.23,0,*55
1485191038.14,18137,11.5,73560.8,-8.75,-41.17,-41.41,0,*55
1485191039.38,18138,11.44,73560.5,-8.75,-41.17,-41.35,0,*59
1485191040.6,18139,11.5,73560.0,-8.75,-41.03,-41.17,0,*5D
1485191041.86,18140,11.44,73558.0,-8.75,-40.97,-41.23,0,*58
1485191043.1,18141,11.44,73556.8,-8.75,-41.03,-41.35,0,*52
1485191044.34,18142,11.5,73562.5,-8.75,-41.03,-41.35,0,*51
1485191045.58,18143,11.44,73558.5,-8.75,-41.17,-41.35,0,*55
1485191046.84,18144,11.44,73558.5,-8.75,-41.23,-41.35,0,*55
1485191048.11,18145,11.44,73556.3,-8.77,-41.23,-41.41,0,*55
1485191049.38,18146,11.44,73560.3,-8.75,-40.97,-41.35,0,*59
1485191050.61,18147,11.5,73562.8,-8.75,-41.17,-41.35,0,*51
1485191051.88,18148,11.5,73562.5,-8.75,-41.23,-41.35,0,*59
1485191053.09,18149,11.5,73560.3,-8.75,-41.17,-41.41,0,*5C
1485191054.33,18150,11.44,73556.0,-8.75,-41.03,-41.23,0,*55
1485191055.59,18151,11.5,73560.8,-8.75,-40.97,-41.23,0,*58
1485191056.83,18152,11.44,73558.5,-8.75,-41.03,-41.23,0,*57
1485191058.1,18153,11.44,73556.8,-8.75,-40.97,-41.23,0,*5A
1485191059.34,18154,11.5,73562.3,-8.75,-41.03,-41.35,0,*56
1485191060.58,18155,11.44,73558.5,-8.73,-41.17,-41.41,0,*57
1485191061.87,18156,11.44,73558.8,-8.73,-41.23,-41.35,0,*50
1485191063.16,18157,11.5,73562.3,-8.73,-41.23,-41.35,0,*51
1485191064.4,18158,11.5,73562.5,-8.75,-41.03,-41.23,0,*5D
1485191065.67,18159,11.5,73560.8,-8.75,-40.97,-41.23,0,*50
1485191066.88,18160,11.5,73560.3,-8.75,-41.03,-41.17,0,*51
1485191068.12,18161,11.44,73560.0,-8.75,-40.97,-41.03,0,*59
1485191069.37,18162,11.5,73562.5,-8.75,-40.91,-40.97,0,*50
1485191070.61,18163,11.44,73562.0,-8.73,-40.73,-41.03,0,*57
1485191071.88,18164,11.44,73560.0,-8.73,-40.91,-40.97,0,*50
1485191073.15,18165,11.44,73560.5,-8.73,-40.97,-41.03,0,*5B
1485191074.41,18166,11.44,73556.0,-8.73,-40.97,-41.17,0,*5D
1485191075.63,18167,11.44,73558.0,-8.71,-40.91,-41.17,0,*58
1485191076.87,18168,11.44,73556.8,-8.73,-40.91,-41.17,0,*55
1485191078.14,18169,11.44,73558.3,-8.73,-40.91,-40.97,0,*5D
1485191079.36,18170,11.44,73558.3,-8.71,-40.91,-41.17,0,*5E
1485191080.63,18171,11.5,73562.8,-8.73,-41.03,-41.23,0,*50
1485191081.89,18172,11.44,73556.8,-8.73,-40.97,-41.17,0,*58
1485191083.16,18173,11.44,73556.0,-8.71,-40.85,-40.97,0,*51
1485191084.42,18174,11.44,73558.8,-8.71,-40.85,-40.97,0,*56
1485191085.64,18175,11.5,73560.8,-8.71,-40.91,-41.11,0,*5D
1485191086.91,18176,11.5,73562.8,-8.73,-41.03,-41.23,0,*57
1485191088.18,18177,11.44,73558.8,-8.73,-40.91,-40.97,0,*52
1485191089.45,18178,11.5,73562.0,-8.71,-40.85,-40.97,0,*5A
1485191090.67,18179,11.5,73562.5,-8.71,-40.91,-41.17,0,*57
1485191091.9,18180,11.5,73562.5,-8.71,-40.85,-41.11,0,*52
1485191093.15,18181,11.5,73560.8,-8.73,-40.91,-41.17,0,*52
1485191094.36,18182,11.5,73562.3,-8.71,-40.91,-41.11,0,*55
1485191095.58,18183,11.44,73560.5,-8.71,-40.91,-41.17,0,*52
1485191096.85,18184,11.5,73562.5,-8.73,-41.03,-41.23,0,*5A
1485191098.08,18185,11.5,73562.0,-8.71,-40.97,-41.29,0,*5F
1485191099.32,18186,11.44,73556.8,-8.71,-40.97,-41.17,0,*51
1485191100.55,18187,11.44,73558.0,-8.71,-40.97,-41.17,0,*50
1485191101.77,18188,11.44,73556.5,-8.71,-41.11,-41.11,0,*56
1485191102.98,18189,11.5,73560.8,-8.71,-40.91,-41.11,0,*5E
1485191104.25,18190,11.44,73558.3,-8.71,-40.85,-40.97,0,*5C
1485191105.47,18191,11.44,73560.0,-8.71,-40.91,-41.17,0,*51
1485191106.7,18192,11.44,73558.0,-8.71,-40.97,-41.29,0,*59
1485191107.96,18193,11.44,73556.0,-8.69,-40.97,-41.17,0,*5C
1485191109.23,18194,11.5,73560.8,-8.69,-40.97,-41.17,0,*5B
1485191110.49,18195,11.44,73558.3,-8.69,-40.97,-41.17,0,*5A
1485191111.75,18196,11.5,73562.3,-8.69,-40.97,-41.11,0,*5F
1485191112.99,18197,11.5,73560.3,-8.71,-40.97,-41.17,0,*51
1485191114.21,18198,11.44,73560.5,-8.71,-40.91,-41.11,0,*5E
1485191115.47,18199,11.5,73560.3,-8.69,-40.97,-41.11,0,*50
1485191116.73,18200,11.5,73560.0,-8.69,-40.97,-41.17,0,*55
1485191118.0,18201,11.44,73558.5,-8.69,-40.97,-41.17,0,*54
1485191119.26,18202,11.44,73556.5,-8.69,-40.97,-41.17,0,*57
1485191120.5,18203,11.5,73560.8,-8.67,-40.85,-41.11,0,*5D
1485191121.74,18204,11.44,73558.5,-8.69,-40.91,-41.11,0,*51
1485191123.0,18205,11.5,73560.8,-8.69,-40.97,-41.17,0,*50
1485191124.24,18206,11.44,73558.8,-8.69,-41.11,-41.29,0,*51
1485191125.45,18207,11.44,73558.0,-8.67,-41.03,-41.29,0,*5D
1485191126.72,18208,11.44,73556.5,-8.69,-40.97,-41.29,0,*50
1485191127.95,18209,11.5,73560.8,-8.69,-41.11,-41.29,0,*5E
1485191129.19,18210,11.5,73560.3,-8.71,-40.97,-41.29,0,*50
1485191130.4,18211,11.44,73558.8,-8.71,-41.11,-41.17,0,*53
1485191131.63,18212,11.5,73562.8,-8.69,-41.11,-41.29,0,*54
1485191132.9,18213,11.44,73556.3,-8.69,-40.97,-41.29,0,*5A
1485191134.16,18214,11.44,73556.8,-8.69,-40.97,-41.29,0,*5D
1485191135.37,18215,11.44,73556.5,-8.67,-40.91,-41.29,0,*54
1485191136.63,18216,11.5,73562.0,-8.69,-40.97,-41.29,0,*5F
1485191137.9,18217,11.44,73558.3,-8.69,-40.97,-41.29,0,*5E
1485191139.14,18218,11.44,73558.3,-8.67,-41.03,-41.23,0,*59
1485191140.37,18219,11.44,73556.0,-8.69,-41.11,-41.29,0,*5F
1485191141.61,18220,11.5,73562.3,-8.69,-41.11,-41.29,0,*55
1485191142.85,18221,11.44,73558.3,-8.67,-40.91,-41.23,0,*59
1485191144.12,18222,11.44,73560.3,-8.69,-40.97,-41.11,0,*53
1485191145.38,18223,11.44,73558.0,-8.69,-40.97,-41.17,0,*54
1485191146.62,18224,11.44,73558.8,-8.69,-41.11,-41.11,0,*5A
1485191147.85,18225,11.5,73562.3,-8.67,-40.79,-41.03,0,*59
1485191149.15,18226,11.44,73556.8,-8.69,-40.85,-40.97,0,*5B
1485191150.44,18227,11.5,73560.0,-8.69,-40.85,-40.97,0,*5A
1485191151.68,18228,11.44,73560.0,-8.67,-40.85,-40.91,0,*5D
1485191152.92,18229,11.44,73556.5,-8.67,-40.85,-40.91,0,*5C
1485191154.16,18230,11.44,73556.5,-8.67,-40.85,-40.91,0,*54
1485191155.42,18231,11.44,73556.5,-8.67,-40.79,-40.85,0,*53
1485191156.68,18232,11.44,73560.0,-8.67,-40.79,-40.85,0,*50
1485191157.91,18233,11.44,73558.0,-8.67,-40.79,-41.03,0,*5E
1485191159.15,18234,11.44,73560.3,-8.67,-40.85,-41.03,0,*5A
1485191160.4,18235,11.44,73558.8,-8.69,-40.91,-41.11,0,*53
1485191161.66,18236,11.44,73558.0,-8.65,-40.85,-40.91,0,*50
1485191162.92,18237,11.44,73558.0,-8.65,-41.11,-41.23,0,*55
1485191164.19,18238,11.44,73558.5,-8.65,-41.03,-41.23,0,*59
1485191165.43,18239,11.44,73558.8,-8.65,-41.03,-41.03,0,*5A
1485191166.68,18240,11.44,73556.3,-8.65,-40.91,-41.03,0,*5E
1485191167.91,18241,11.44,73556.5,-8.63,-40.73,-40.97,0,*59
1485191169.18,18242,11.44,73560.5,-8.65,-40.85,-41.11,0,*5A
1485191170.4,18243,11.5,73562.0,-8.67,-40.91,-41.03,0,*5F
1485191171.61,18244,11.44,73556.8,-8.67,-40.91,-41.11,0,*5B
1485191172.83,18245,11.44,73556.0,-8.67,-40.91,-41.11,0,*5A
1485191174.05,18246,11.44,73556.8,-8.67,-41.03,-41.03,0,*50
1485191175.27,18247,11.44,73556.0,-8.67,-41.03,-41.11,0,*52
1485191176.53,18248,11.44,73558.0,-8.67,-40.97,-41.23,0,*50
1485191177.77,18249,11.44,73558.5,-8.67,-40.85,-41.03,0,*50
1485191179.03,18250,11.44,73556.5,-8.65,-40.85,-40.91,0,*50
1485191180.29,18251,11.44,73558.8,-8.65,-40.79,-40.91,0,*52
1485191181.56,18252,11.44,73558.8,-8.65,-40.85,-41.03,0,*58
1485191182.79,18253,11.44,73558.0,-8.63,-40.73,-40.97,0,*5A
1485191184.03,18254,11.44,73558.0,-8.63,-40.79,-41.03,0,*5B
1485191185.27,18255,11.44,73558.5,-8.65,-41.03,-41.11,0,*53
1485191186.51,18256,11.44,73556.5,-8.65,-40.91,-41.11,0,*5A
1485191187.75,18257,11.44,73560.3,-8.65,-40.91,-41.11,0,*5B
1485191188.99,18258,11.44,73556.0,-8.65,-41.03,-41.11,0,*5E
1485191190.26,18259,11.44,73556.3,-8.65,-41.03,-41.23,0,*5E
1485191191.5,18260,11.44,73556.8,-8.65,-41.03,-41.29,0,*5E
1485191192.73,18261,11.44,73560.5,-8.63,-40.97,-41.17,0,*58
1485191193.97,18262,11.44,73556.3,-8.67,-40.91,-41.23,0,*5E
1485191195.21,18263,11.44,73558.8,-8.65,-41.03,-41.29,0,*5D
1485191196.44,18264,11.44,73556.0,-8.63,-41.11,-41.23,0,*55
1485191197.65,18265,11.44,73558.5,-8.63,-41.03,-41.29,0,*5D
1485191198.92,18266,11.44,73556.8,-8.65,-41.03,-41.23,0,*52
1485191200.16,18267,11.44,73558.3,-8.63,-40.85,-41.03,0,*58
1485191201.42,18268,11.44,73558.5,-8.65,-40.79,-40.91,0,*58
1485191202.67,18269,11.44,73558.3,-8.65,-40.65,-40.79,0,*52
1485191203.89,18270,11.44,73556.5,-8.63,-40.73,-40.79,0,*5B
1485191205.12,18271,11.44,73556.0,-8.63,-40.73,-40.79,0,*5A
1485191206.35,18272,11.44,73556.3,-8.63,-40.73,-40.59,0,*5B
1485191207.6,18273,11.44,73556.0,-8.63,-40.59,-40.79,0,*50
1485191208.85,18274,11.44,73558.0,-8.65,-40.91,-41.03,0,*59
1485191210.11,18275,11.5,73562.8,-8.63,-40.85,-40.97,0,*57
1485191211.38,18276,11.44,73556.3,-8.65,-40.85,-41.03,0,*5E
1485191212.64,18277,11.44,73552.5,-8.63,-40.79,-40.85,0,*55
1485191213.87,18278,11.44,73558.0,-8.63,-40.73,-40.97,0,*53
1485191215.1,18279,11.44,73556.3,-8.63,-40.73,-40.79,0,*52
1485191216.36,18280,11.44,73556.8,-8.61,-40.73,-40.85,0,*55
1485191217.63,18281,11.44,73556.3,-8.61,-40.73,-40.85,0,*54
1485191218.86,18282,11.44,73556.8,-8.59,-40.79,-40.91,0,*53
1485191220.11,18283,11.44,73560.0,-8.61,-40.73,-40.79,0,*55
1485191221.32,18284,11.44,73556.0,-8.59,-40.47,-40.53,0,*56
1485191222.51,18285,11.44,73558.8,-8.59,-40.53,-40.73,0,*50
1485191223.78,18286,11.44,73558.0,-8.61,-40.73,-40.85,0,*53
1485191224.97,18287,11.44,73558.5,-8.59,-40.65,-40.73,0,*57
1485191226.23,18288,11.44,73556.3,-8.61,-40.73,-40.79,0,*5E
1485191227.49,18289,11.44,73556.5,-8.61,-40.73,-40.85,0,*5C
1485191228.76,18290,11.44,73556.0,-8.61,-40.73,-40.85,0,*54
1485191229.95,18291,11.44,73558.8,-8.59,-40.65,-40.73,0,*50
1485191231.17,18292,11.5,73562.3,-8.59,-40.65,-40.79,0,*59
1485191232.44,18293,11.44,73556.3,-8.61,-40.85,-40.91,0,*5B
1485191233.67,18294,11.44,73556.0,-8.59,-40.79,-40.91,0,*54
1485191234.87,18295,11.44,73556.5,-8.59,-40.65,-40.91,0,*58
1485191236.1,18296,11.44,73556.3,-8.59,-40.79,-40.91,0,*56
1485191237.33,18297,11.44,73554.8,-8.59,-40.79,-40.91,0,*57
1485191238.6,18298,11.44,73556.0,-8.61,-40.97,-41.03,0,*59
1485191239.85,18299,11.44,73556.8,-8.59,-40.79,-40.97,0,*5F
1485191241.11,18300,11.5,73562.8,-8.59,-40.79,-40.97,0,*5E
1485191242.4,18301,11.5,73560.0,-8.61,-40.97,-41.23,0,*5A
1485191243.63,18302,11.44,73558.5,-8.59,-40.79,-40.91,0,*5A
1485191244.87,18303,11.44,73556.3,-8.59,-40.91,-40.97,0,*5B
1485191246.08,18304,11.44,73556.5,-8.59,-40.91,-41.11,0,*53
1485191247.31,18305,11.44,73558.0,-8.59,-40.79,-40.91,0,*5D
1485191248.59,18306,11.44,73558.5,-8.61,-40.79,-40.85,0,*50
1485191249.82,18307,11.44,73558.3,-8.59,-40.79,-40.91,0,*5F
1485191251.05,18308,11.44,73556.0,-8.59,-40.73,-40.79,0,*5C
1485191252.3,18309,11.44,73554.0,-8.59,-40.79,-40.97,0,*57
1485191253.52,18310,11.44,73556.8,-8.59,-40.65,-40.79,0,*52
1485191254.75,18311,11.44,73558.3,-8.59,-40.65,-40.97,0,*53
1485191255.97,18312,11.44,73558.5,-8.59,-40.65,-40.79,0,*50
1485191257.18,18313,11.44,73556.5,-8.55,-40.73,-40.91,0,*5C
1485191258.43,18314,11.5,73558.8,-8.55,-40.79,-40.79,0,*57
1485191259.66,18315,11.44,73558.3,-8.59,-40.79,-40.91,0,*5C
1485191260.88,18316,11.44,73558.5,-8.59,-40.79,-41.11,0,*56
1485191262.11,18317,11.44,73556.0,-8.55,-40.79,-41.11,0,*5B
1485191263.33,18318,11.44,73558.5,-8.55,-40.91,-41.11,0,*52
1485191264.53,18319,11.44,73556.3,-8.55,-41.11,-41.17,0,*5C
1485191265.76,18320,11.44,73554.8,-8.59,-40.97,-41.17,0,*55
1485191267.02,18321,11.5,73560.3,-8.55,-40.79,-40.97,0,*51
1485191268.24,18322,11.44,73556.5,-8.59,-40.73,-40.79,0,*54
1485191269.46,18323,11.44,73556.8,-8.55,-40.91,-41.17,0,*5C
1485191270.69,18324,11.44,73556.5,-8.55,-40.97,-41.17,0,*5D
1485191271.92,18325,11.44,73558.8,-8.55,-40.97,-41.17,0,*5C
1485191273.13,18326,11.44,73558.5,-8.55,-41.11,-41.17,0,*50
1485191274.39,18327,11.44,73556.0,-8.51,-40.85,-41.03,0,*5C
1485191275.66,18328,11.44,73556.5,-8.51,-40.85,-40.91,0,*59
1485191276.87,18329,11.44,73554.5,-8.55,-40.73,-40.91,0,*55
1485191278.11,18330,11.44,73554.5,-8.55,-40.91,-40.97,0,*57
1485191279.34,18331,11.44,73556.5,-8.55,-40.79,-41.17,0,*59
1485191280.58,18332,11.44,73556.8,-8.51,-40.73,-40.91,0,*5B
1485191281.81,18333,11.44,73556.5,-8.55,-40.79,-40.91,0,*54
1485191283.07,18334,11.44,73556.0,-8.51,-40.65,-40.85,0,*5F
1485191284.33,18335,11.44,73558.5,-8.55,-40.79,-40.97,0,*54
1485191285.56,18336,11.44,73556.5,-8.55,-40.79,-40.91,0,*51
1485191286.77,18337,11.44,73556.3,-8.55,-40.91,-41.11,0,*5F
1485191288.01,18338,11.44,73556.8,-8.55,-40.97,-41.11,0,*56
1485191289.27,18339,11.44,73556.5,-8.51,-40.85,-41.03,0,*53
1485191290.54,18340,11.44,73556.5,-8.51,-40.85,-40.91,0,*57
1485191291.77,18341,11.44,73556.0,-8.55,-40.97,-41.17,0,*5E
1485191293.04,18342,11.44,73558.0,-8.51,-40.85,-40.91,0,*55
1485191294.3,18343,11.44,73558.8,-8.51,-40.85,-41.11,0,*5D
1485191295.51,18344,11.44,73558.5,-8.55,-40.91,-41.11,0,*5B
1485191296.76,18345,11.44,73556.8,-8.51,-40.91,-41.03,0,*5D
1485191297.99,18346,11.44,73552.8,-8.51,-40.73,-40.91,0,*58
1485191299.24,18347,11.44,73552.5,-8.51,-40.91,-41.03,0,*5F
1485191300.48,18348,11.44,73554.0,-8.51,-40.73,-41.03,0,*5C
1485191301.71,18349,11.44,73556.0,-8.55,-40.97,-41.17,0,*56